Time,TemperatureF,DewpointF,PressureIn,WindDirection,WindDirectionDegrees,WindSpeedMPH,WindSpeedGustMPH,Humidity,HourlyPrecipIn,Conditions,Clouds,dailyrainin,SoftwareType,DateUTC
2013-02-12 00:11:00,43.0,41.0,29.62,North,0,0.0,58.0,94,0.00,,,0.00,,2013-02-12 05:11:00,
2013-02-12 00:22:00,43.0,41.0,29.62,North,0,0.0,58.0,94,0.00,,,0.00,,2013-02-12 05:22:00,
2013-02-12 00:32:00,43.0,41.0,29.62,North,0,0.0,58.0,94,0.00,,,0.00,,2013-02-12 05:32:00,
2013-02-12 00:42:00,43.0,41.0,29.62,North,0,0.0,58.0,94,0.00,,,0.00,,2013-02-12 05:42:00,
2013-02-12 00:52:00,42.0,40.0,29.62,North,0,0.0,58.0,94,0.00,,,0.00,,2013-02-12 05:52:00,
2013-02-12 01:02:00,42.0,40.0,29.62,North,0,0.0,58.0,94,0.00,,,0.00,,2013-02-12 06:02:00,
2013-02-12 01:12:00,42.0,40.0,29.62,North,0,0.0,58.0,94,0.00,,,0.00,,2013-02-12 06:12:00,
2013-02-12 01:22:00,42.0,40.0,29.62,North,0,0.0,58.0,94,0.00,,,0.00,,2013-02-12 06:22:00,
2013-02-12 01:32:00,42.0,40.0,29.62,North,0,0.0,58.0,94,0.00,,,0.00,,2013-02-12 06:32:00,
2013-02-12 01:42:00,42.0,40.0,29.62,North,0,0.0,58.0,94,0.00,,,0.00,,2013-02-12 06:42:00,
2013-02-12 01:52:00,42.0,40.0,29.62,North,0,0.0,58.0,94,0.00,,,0.00,,2013-02-12 06:52:00,
2013-02-12 02:01:00,42.0,40.0,29.62,North,0,0.0,58.0,94,0.00,,,0.00,,2013-02-12 07:01:00,
2013-02-12 02:12:00,40.0,38.0,29.62,North,0,0.0,58.0,94,0.00,,,0.00,,2013-02-12 07:12:00,
2013-02-12 02:22:00,40.0,38.0,29.62,North,0,0.0,58.0,94,0.00,,,0.00,,2013-02-12 07:22:00,
2013-02-12 02:32:00,40.0,38.0,29.62,North,0,0.0,58.0,94,0.00,,,0.00,,2013-02-12 07:32:00,
2013-02-12 02:42:00,40.0,38.0,29.62,North,0,0.0,58.0,94,0.00,,,0.00,,2013-02-12 07:42:00,
2013-02-12 02:52:00,40.0,38.0,29.62,North,0,0.0,58.0,94,0.00,,,0.00,,2013-02-12 07:52:00,
2013-02-12 03:01:00,40.0,38.0,29.62,North,0,0.0,58.0,94,0.00,,,0.00,,2013-02-12 08:01:00,
2013-02-12 03:11:00,40.0,38.0,29.62,North,0,0.0,58.0,94,0.00,,,0.00,,2013-02-12 08:11:00,
2013-02-12 03:21:00,40.0,38.0,29.62,North,0,0.0,58.0,94,0.00,,,0.00,,2013-02-12 08:21:00,
2013-02-12 03:32:00,40.0,38.0,29.62,North,0,0.0,58.0,94,0.00,,,0.00,,2013-02-12 08:32:00,
2013-02-12 03:42:00,40.0,38.0,29.62,North,0,0.0,58.0,94,0.00,,,0.00,,2013-02-12 08:42:00,
2013-02-12 03:52:00,40.0,38.0,29.62,North,0,0.0,58.0,94,0.00,,,0.00,,2013-02-12 08:52:00,
2013-02-12 04:02:00,39.0,37.0,29.65,WSW,248,0.0,0.0,93,0.00,,,0.00,,2013-02-12 09:02:00,
2013-02-12 04:11:00,38.0,36.0,29.65,NW,315,0.0,0.0,93,0.00,,,0.00,,2013-02-12 09:11:00,
2013-02-12 04:22:00,38.0,36.0,29.65,NW,315,0.0,0.0,93,0.00,,,0.00,,2013-02-12 09:22:00,
2013-02-12 04:32:00,38.0,36.0,29.65,WSW,248,0.0,0.0,93,0.00,,,0.00,,2013-02-12 09:32:00,
2013-02-12 04:42:00,37.0,35.0,29.65,West,270,0.0,7.0,93,0.00,,,0.00,,2013-02-12 09:42:00,
2013-02-12 04:52:00,37.0,35.0,29.65,West,270,0.0,7.0,93,0.00,,,0.00,,2013-02-12 09:52:00,
2013-02-12 05:01:00,37.0,35.0,29.65,NNW,338,7.0,7.0,93,0.00,,,0.00,,2013-02-12 10:01:00,
2013-02-12 05:11:00,36.0,34.0,29.65,West,270,0.0,6.0,92,0.00,,,0.00,,2013-02-12 10:11:00,
2013-02-12 05:21:00,36.0,34.0,29.65,West,270,0.0,6.0,92,0.00,,,0.00,,2013-02-12 10:21:00,
2013-02-12 05:32:00,36.0,34.0,29.65,WNW,292,0.0,0.0,92,0.00,,,0.00,,2013-02-12 10:32:00,
2013-02-12 05:43:00,36.0,34.0,29.65,WNW,292,0.0,0.0,92,0.00,,,0.00,,2013-02-12 10:43:00,
2013-02-12 05:52:00,36.0,34.0,29.68,WNW,292,0.0,0.0,92,0.00,,,0.00,,2013-02-12 10:52:00,
2013-02-12 06:01:00,36.0,34.0,29.68,WNW,292,0.0,0.0,92,0.00,,,0.00,,2013-02-12 11:01:00,
2013-02-12 06:11:00,35.0,33.0,29.68,West,270,0.0,0.0,92,0.00,,,0.00,,2013-02-12 11:11:00,
2013-02-12 06:22:00,35.0,33.0,29.68,West,270,0.0,0.0,92,0.00,,,0.00,,2013-02-12 11:22:00,
2013-02-12 06:32:00,35.0,33.0,29.68,NW,315,0.0,0.0,92,0.00,,,0.00,,2013-02-12 11:32:00,
2013-02-12 06:42:00,35.0,33.0,29.68,NW,315,0.0,0.0,92,0.00,,,0.00,,2013-02-12 11:42:00,
2013-02-12 06:52:00,35.0,33.0,29.68,NW,315,0.0,0.0,92,0.00,,,0.00,,2013-02-12 11:52:00,
2013-02-12 07:01:00,35.0,33.0,29.68,NW,315,0.0,0.0,93,0.00,,,0.00,,2013-02-12 12:01:00,
2013-02-12 07:11:00,35.0,33.0,29.68,West,270,0.0,0.0,92,0.00,,,0.00,,2013-02-12 12:11:00,
2013-02-12 07:21:00,35.0,33.0,29.68,West,270,0.0,0.0,92,0.00,,,0.00,,2013-02-12 12:21:00,
2013-02-12 07:32:00,35.0,33.0,29.68,West,270,0.0,0.0,92,0.00,,,0.00,,2013-02-12 12:32:00,
2013-02-12 07:42:00,35.0,33.0,29.71,WSW,248,0.0,0.0,92,0.00,,,0.00,,2013-02-12 12:42:00,
2013-02-12 07:53:00,35.0,33.0,29.71,WSW,248,0.0,0.0,92,0.00,,,0.00,,2013-02-12 12:53:00,
2013-02-12 08:01:00,35.0,33.0,29.71,WSW,248,0.0,0.0,92,0.00,,,0.00,,2013-02-12 13:01:00,
2013-02-12 08:11:00,36.0,34.0,29.71,North,0,0.0,0.0,92,0.00,,,0.00,,2013-02-12 13:11:00,
2013-02-12 08:22:00,36.0,34.0,29.71,North,0,0.0,0.0,92,0.00,,,0.00,,2013-02-12 13:22:00,
2013-02-12 08:32:00,37.0,35.0,29.71,WSW,248,0.0,1.0,92,0.00,,,0.00,,2013-02-12 13:32:00,
2013-02-12 08:42:00,37.0,35.0,29.71,WSW,248,0.0,1.0,92,0.00,,,0.00,,2013-02-12 13:42:00,
2013-02-12 08:52:00,37.0,35.0,29.71,NW,315,0.0,8.0,93,0.00,,,0.00,,2013-02-12 13:52:00,
2013-02-12 09:01:00,37.0,35.0,29.71,NW,315,0.0,8.0,93,0.00,,,0.00,,2013-02-12 14:01:00,
2013-02-12 09:12:00,37.0,35.0,29.71,NW,315,0.0,8.0,93,0.00,,,0.00,,2013-02-12 14:12:00,
2013-02-12 09:21:00,38.0,36.0,29.74,WSW,248,0.0,4.0,92,0.00,,,0.00,,2013-02-12 14:21:00,
2013-02-12 09:32:00,39.0,37.0,29.74,WNW,292,0.0,5.0,92,0.00,,,0.00,,2013-02-12 14:32:00,
2013-02-12 09:42:00,39.0,37.0,29.74,WNW,292,0.0,5.0,92,0.00,,,0.00,,2013-02-12 14:42:00,
2013-02-12 09:52:00,39.0,37.0,29.74,SSW,202,0.0,8.0,92,0.00,,,0.00,,2013-02-12 14:52:00,
2013-02-12 10:02:00,40.0,38.0,29.74,NW,315,3.0,5.0,92,0.00,,,0.00,,2013-02-12 15:02:00,
2013-02-12 10:11:00,40.0,38.0,29.74,West,270,0.0,8.0,91,0.00,,,0.00,,2013-02-12 15:11:00,
2013-02-12 10:21:00,40.0,38.0,29.74,West,270,0.0,8.0,91,0.00,,,0.00,,2013-02-12 15:21:00,
2013-02-12 10:32:00,41.0,39.0,29.74,NNW,338,5.0,10.0,91,0.00,,,0.00,,2013-02-12 15:32:00,
2013-02-12 10:42:00,41.0,39.0,29.74,NNW,338,5.0,10.0,91,0.00,,,0.00,,2013-02-12 15:42:00,
2013-02-12 10:52:00,41.0,38.0,29.74,West,270,0.0,5.0,89,0.00,,,0.00,,2013-02-12 15:52:00,
2013-02-12 11:01:00,41.0,38.0,29.74,WSW,248,5.0,9.0,89,0.00,,,0.00,,2013-02-12 16:01:00,
2013-02-12 11:11:00,41.0,38.0,29.74,WSW,248,5.0,9.0,89,0.00,,,0.00,,2013-02-12 16:11:00,
2013-02-12 11:22:00,41.0,38.0,29.74,WSW,248,5.0,9.0,89,0.00,,,0.00,,2013-02-12 16:22:00,
2013-02-12 11:32:00,42.0,38.0,29.74,NW,315,7.0,7.0,86,0.00,,,0.00,,2013-02-12 16:32:00,
2013-02-12 11:42:00,42.0,38.0,29.74,NW,315,7.0,7.0,86,0.00,,,0.00,,2013-02-12 16:42:00,
2013-02-12 11:52:00,42.0,38.0,29.74,North,0,3.0,6.0,85,0.00,,,0.00,,2013-02-12 16:52:00,
2013-02-12 12:01:00,43.0,38.0,29.71,NNW,338,7.0,12.0,81,0.00,,,0.00,,2013-02-12 17:01:00,
2013-02-12 12:12:00,43.0,37.0,29.71,WSW,248,0.0,11.0,78,0.00,,,0.00,,2013-02-12 17:12:00,
2013-02-12 12:21:00,43.0,37.0,29.71,WSW,248,0.0,11.0,78,0.00,,,0.00,,2013-02-12 17:21:00,
2013-02-12 12:32:00,43.0,36.0,29.71,NW,315,0.0,11.0,76,0.00,,,0.00,,2013-02-12 17:32:00,
2013-02-12 12:42:00,43.0,36.0,29.71,NW,315,0.0,11.0,76,0.00,,,0.00,,2013-02-12 17:42:00,
2013-02-12 12:52:00,44.0,36.0,29.71,WNW,292,5.0,8.0,74,0.00,,,0.00,,2013-02-12 17:52:00,
2013-02-12 13:02:00,44.0,36.0,29.71,WSW,248,6.0,11.0,74,0.00,,,0.00,,2013-02-12 18:02:00,
2013-02-12 13:11:00,44.0,36.0,29.74,NW,315,0.0,11.0,72,0.00,,,0.00,,2013-02-12 18:11:00,
2013-02-12 13:23:00,44.0,36.0,29.74,NW,315,0.0,11.0,72,0.00,,,0.00,,2013-02-12 18:23:00,
2013-02-12 13:32:00,44.0,36.0,29.74,West,270,0.0,7.0,72,0.00,,,0.00,,2013-02-12 18:32:00,
2013-02-12 13:41:00,44.0,35.0,29.74,West,270,0.0,8.0,70,0.00,,,0.00,,2013-02-12 18:41:00,
2013-02-12 13:52:00,44.0,35.0,29.74,West,270,0.0,8.0,70,0.00,,,0.00,,2013-02-12 18:52:00,
2013-02-12 14:02:00,44.0,35.0,29.74,West,270,0.0,8.0,70,0.00,,,0.00,,2013-02-12 19:02:00,
2013-02-12 14:11:00,44.0,34.0,29.74,NW,315,5.0,11.0,67,0.00,,,0.00,,2013-02-12 19:11:00,
2013-02-12 14:21:00,44.0,34.0,29.74,NW,315,5.0,11.0,67,0.00,,,0.00,,2013-02-12 19:21:00,
2013-02-12 14:31:00,44.0,34.0,29.74,WNW,292,8.0,8.0,67,0.00,,,0.00,,2013-02-12 19:31:00,
2013-02-12 14:42:00,44.0,33.0,29.74,WNW,292,6.0,10.0,66,0.00,,,0.00,,2013-02-12 19:42:00,
2013-02-12 14:52:00,44.0,33.0,29.74,WNW,292,6.0,10.0,66,0.00,,,0.00,,2013-02-12 19:52:00,
2013-02-12 15:01:00,44.0,33.0,29.74,WNW,292,9.0,12.0,65,0.00,,,0.00,,2013-02-12 20:01:00,
2013-02-12 15:11:00,44.0,33.0,29.77,NNW,338,0.0,12.0,65,0.00,,,0.00,,2013-02-12 20:11:00,
2013-02-12 15:21:00,44.0,33.0,29.77,NNW,338,0.0,12.0,65,0.00,,,0.00,,2013-02-12 20:21:00,
2013-02-12 15:32:00,43.0,32.0,29.77,NNW,338,5.0,10.0,66,0.00,,,0.00,,2013-02-12 20:32:00,
2013-02-12 15:41:00,43.0,32.0,29.77,SW,225,6.0,6.0,66,0.00,,,0.00,,2013-02-12 20:41:00,
2013-02-12 15:52:00,43.0,32.0,29.77,SW,225,6.0,6.0,66,0.00,,,0.00,,2013-02-12 20:52:00,
2013-02-12 16:01:00,43.0,32.0,29.77,WSW,248,6.0,6.0,65,0.00,,,0.00,,2013-02-12 21:01:00,
2013-02-12 16:11:00,43.0,32.0,29.77,WSW,248,6.0,6.0,65,0.00,,,0.00,,2013-02-12 21:11:00,
2013-02-12 16:21:00,42.0,31.0,29.77,NNW,338,0.0,9.0,66,0.00,,,0.00,,2013-02-12 21:21:00,
2013-02-12 16:31:00,42.0,31.0,29.77,NNW,338,0.0,9.0,66,0.00,,,0.00,,2013-02-12 21:31:00,
2013-02-12 16:42:00,42.0,31.0,29.77,NW,315,1.0,10.0,66,0.00,,,0.00,,2013-02-12 21:42:00,
2013-02-12 16:52:00,42.0,31.0,29.77,NW,315,1.0,10.0,66,0.00,,,0.00,,2013-02-12 21:52:00,
2013-02-12 17:01:00,41.0,31.0,29.77,West,270,0.0,4.0,67,0.00,,,0.00,,2013-02-12 22:01:00,
2013-02-12 17:12:00,41.0,31.0,29.77,WSW,248,0.0,6.0,67,0.00,,,0.00,,2013-02-12 22:12:00,
2013-02-12 17:21:00,41.0,31.0,29.77,WSW,248,0.0,6.0,67,0.00,,,0.00,,2013-02-12 22:21:00,
2013-02-12 17:32:00,40.0,30.0,29.77,NNW,338,6.0,7.0,68,0.00,,,0.00,,2013-02-12 22:32:00,
2013-02-12 17:42:00,40.0,30.0,29.77,NNW,338,4.0,9.0,68,0.00,,,0.00,,2013-02-12 22:42:00,
2013-02-12 17:52:00,40.0,30.0,29.77,NNW,338,4.0,9.0,68,0.00,,,0.00,,2013-02-12 22:52:00,
2013-02-12 18:01:00,40.0,30.0,29.77,North,0,0.0,9.0,68,0.00,,,0.00,,2013-02-12 23:01:00,
2013-02-12 18:11:00,40.0,30.0,29.77,WNW,292,0.0,1.0,68,0.00,,,0.00,,2013-02-12 23:11:00,
2013-02-12 18:21:00,40.0,30.0,29.77,WNW,292,0.0,1.0,68,0.00,,,0.00,,2013-02-12 23:21:00,
2013-02-12 18:32:00,40.0,30.0,29.77,NW,315,0.0,3.0,68,0.00,,,0.00,,2013-02-12 23:32:00,
2013-02-12 18:42:00,40.0,30.0,29.77,NW,315,0.0,3.0,68,0.00,,,0.00,,2013-02-12 23:42:00,
2013-02-12 18:52:00,40.0,31.0,29.77,NW,315,0.0,0.0,69,0.00,,,0.00,,2013-02-12 23:52:00,
2013-02-12 19:02:00,39.0,30.0,29.80,NW,315,0.0,0.0,69,0.00,,,0.00,,2013-02-13 00:02:00,
2013-02-12 19:11:00,39.0,30.0,29.80,NW,315,0.0,0.0,69,0.00,,,0.00,,2013-02-13 00:11:00,
2013-02-12 19:21:00,39.0,30.0,29.80,NW,315,0.0,0.0,69,0.00,,,0.00,,2013-02-13 00:21:00,
2013-02-12 19:32:00,39.0,30.0,29.83,NW,315,0.0,2.0,70,0.00,,,0.00,,2013-02-13 00:32:00,
2013-02-12 19:42:00,39.0,30.0,29.83,NW,315,0.0,2.0,70,0.00,,,0.00,,2013-02-13 00:42:00,
2013-02-12 19:52:00,39.0,30.0,29.85,West,270,0.0,10.0,70,0.00,,,0.00,,2013-02-13 00:52:00,
2013-02-12 20:01:00,38.0,29.0,29.88,WSW,248,0.0,0.0,71,0.00,,,0.00,,2013-02-13 01:01:00,
2013-02-12 20:11:00,38.0,29.0,29.88,WSW,248,0.0,0.0,71,0.00,,,0.00,,2013-02-13 01:11:00,
2013-02-12 20:21:00,38.0,29.0,29.88,West,270,0.0,0.0,71,0.00,,,0.00,,2013-02-13 01:21:00,
2013-02-12 20:32:00,38.0,29.0,29.88,SW,225,0.0,5.0,71,0.00,,,0.00,,2013-02-13 01:32:00,
2013-02-12 20:42:00,38.0,29.0,29.88,WSW,248,0.0,6.0,71,0.00,,,0.00,,2013-02-13 01:42:00,
2013-02-12 20:51:00,38.0,29.0,29.88,WSW,248,0.0,6.0,71,0.00,,,0.00,,2013-02-13 01:51:00,
2013-02-12 21:01:00,38.0,29.0,29.88,WNW,292,0.0,5.0,71,0.00,,,0.00,,2013-02-13 02:01:00,
2013-02-12 21:11:00,38.0,29.0,29.88,West,270,0.0,3.0,70,0.00,,,0.00,,2013-02-13 02:11:00,
2013-02-12 21:22:00,38.0,29.0,29.88,West,270,0.0,3.0,70,0.00,,,0.00,,2013-02-13 02:22:00,
2013-02-12 21:32:00,38.0,29.0,29.88,SW,225,0.0,4.0,71,0.00,,,0.00,,2013-02-13 02:32:00,
2013-02-12 21:42:00,38.0,29.0,29.88,SW,225,0.0,4.0,71,0.00,,,0.00,,2013-02-13 02:42:00,
2013-02-12 21:52:00,38.0,29.0,29.88,SW,225,0.0,4.0,71,0.00,,,0.00,,2013-02-13 02:52:00,
2013-02-12 22:01:00,37.0,28.0,29.85,WSW,248,0.0,4.0,71,0.00,,,0.00,,2013-02-13 03:01:00,
2013-02-12 22:11:00,37.0,29.0,29.85,WSW,248,0.0,0.0,72,0.00,,,0.00,,2013-02-13 03:11:00,
2013-02-12 22:21:00,37.0,29.0,29.85,WSW,248,0.0,0.0,72,0.00,,,0.00,,2013-02-13 03:21:00,
2013-02-12 22:32:00,37.0,29.0,29.85,WSW,248,0.0,0.0,72,0.00,,,0.00,,2013-02-13 03:32:00,
2013-02-12 22:42:00,37.0,29.0,29.85,WSW,248,0.0,0.0,72,0.00,,,0.00,,2013-02-13 03:42:00,
2013-02-12 22:52:00,36.0,28.0,29.85,West,270,0.0,0.0,73,0.00,,,0.00,,2013-02-13 03:52:00,
2013-02-12 23:01:00,36.0,29.0,29.85,North,0,0.0,0.0,74,0.00,,,0.00,,2013-02-13 04:01:00,
2013-02-12 23:11:00,36.0,29.0,29.85,North,0,0.0,0.0,74,0.00,,,0.00,,2013-02-13 04:11:00,
2013-02-12 23:21:00,35.0,28.0,29.83,NW,315,0.0,0.0,74,0.00,,,0.00,,2013-02-13 04:21:00,
2013-02-12 23:32:00,35.0,28.0,29.83,NW,315,0.0,0.0,76,0.00,,,0.00,,2013-02-13 04:32:00,
2013-02-12 23:41:00,34.0,28.0,29.85,NW,315,0.0,0.0,77,0.00,,,0.00,,2013-02-13 04:41:00,
2013-02-12 23:51:00,34.0,28.0,29.85,NW,315,0.0,0.0,77,0.00,,,0.00,,2013-02-13 04:51:00,